Flag for Canada Weather past 2 weeks in Rothesay, New Brunswick, Canada

Now
55 °F

Passing clouds.


Feels Like: 52 °F
Forecast: 54 / 70 °F
Wind: 14 mph from Southwest

Location: Saint John

Current Time: Sep 21, 2014 at 9:22:53 AM

Latest Report: Sep 21, 2014 at 8:00 AM


Visibility: 10 mi

Pressure: 30.03 "Hg

Humidity: 94%

Dew point: 54 °F

Location of RothesayLocation

Historic Weather in Rothesay — Graph

°F

Rothesay temperature yesterday

Maximum temperature yesterday: 57 °F (at 3:00 PM)
Minimum temperature yesterday: 30 °F (at 12:00 AM)
Average temperature yesterday: 48 °F

Past Weeks' High & Low Weather Summary

 TemperatureHumidityPressure
High70 °F (Sep 7, 5:00 PM)100% (Sep 6, 8:00 AM)30.49 "Hg (Sep 6, 8:00 AM)
Low28 °F (Sep 19, 11:00 PM)24% (Sep 19, 6:00 PM)29.71 "Hg (Sep 6, 6:00 PM)
Average53 °F79%30.11 "Hg
* Reported Sep 6 8:00 AM — Sep 21 8:00 AM, Rothesay, Weather by CustomWeather, © 2014

Note: Actual official high and low records may vary slightly from our data, if they occured in-between our weather recording intervals... More about our weather records

Advertising

Rothesay weather history for previous 24 hours

 ConditionsComfort  
Time TempWeatherWind HumidityBarometerVisibility
8:00 AM
Sep 21
55 °FPassing clouds.14 mph94%30.03 "Hg10 mi
7:00 AM54 °FFog.12 mph100%30.04 "Hg6 mi
6:00 AM55 °FFog.14 mph94%30.04 "Hg5 mi
5:00 AM54 °FFog.13 mph100%30.06 "Hg5 mi
4:00 AM55 °FLow clouds.13 mph94%30.08 "Hg8 mi
3:00 AM55 °FLow clouds.10 mph94%30.08 "Hg8 mi
2:00 AM55 °FPartly cloudy.14 mph94%30.08 "Hg15 mi
1:00 AM55 °FPassing clouds.21 mph94%30.08 "Hg15 mi
12:00 AM55 °FFog.16 mph94%30.12 "Hg5 mi
11:00 PM
Sep 20
55 °FMostly cloudy.20 mph94%30.14 "Hg10 mi
10:00 PM55 °FMostly cloudy.18 mph94%30.16 "Hg10 mi
9:00 PM55 °FMostly cloudy.18 mph88%30.16 "Hg15 mi
8:00 PM55 °FMostly cloudy.20 mph82%30.17 "Hg15 mi
7:00 PM55 °FMostly cloudy.18 mph82%30.18 "Hg15 mi
6:47 PM55 °FMostly cloudy.17 mph82%30.19 "Hg15 mi
6:00 PM55 °FMostly cloudy.21 mph77%30.19 "Hg15 mi
5:00 PM55 °FMostly cloudy.26 mph72%30.20 "Hg15 mi
4:00 PM57 °FBroken clouds.25 mph63%30.22 "Hg15 mi
3:00 PM57 °FPartly sunny.28 mph59%30.23 "Hg15 mi
2:00 PM55 °FBroken clouds.26 mph63%30.26 "Hg15 mi
10:00 AM52 °FPartly sunny.22 mph54%30.33 "Hg15 mi
9:00 AM52 °FPartly sunny.21 mph50%30.34 "Hg15 mi
Weather by CustomWeather, © 2014

See weather overviewHow to use our weather pages